• în România
  • Lista ţărilor
  • Pe 7 zile
  • Temperatura apei
  • Hartă satelitară
  • Meteo pe hartă
  • Widget-uri
  • user-avatar
    Intrare

    Meteo pe oră la Kipungo

    Astăzi, 26 Septembrie, Marţi

    Timp Temperatura Precipitaţii Vânt Presiune Umiditate
    00:00 +21°C° 0 mm 2 m/s 652 mmHg 63%
    01:00 +20°C° 0 mm 2 m/s 652 mmHg 70%
    02:00 +20°C° 0 mm 1 m/s 652 mmHg 73%
    03:00 +19°C° 0 mm 1 m/s 652 mmHg 77%
    04:00 +19°C° 0 mm 1 m/s 651 mmHg 80%
    05:00 +20°C° 0 mm 1 m/s 652 mmHg 75%
    06:00 +21°C° 0 mm 1 m/s 652 mmHg 70%
    07:00 +20°C° 0 mm 0 m/s 653 mmHg 65%
    08:00 +25°C° 0 mm 1 m/s 654 mmHg 50%
    09:00 +29°C° 0 mm 2 m/s 654 mmHg 36%
    10:00 +33°C° 0 mm 3 m/s 655 mmHg 21%
    11:00 +35°C° 0 mm 3 m/s 655 mmHg 17%
    12:00 +37°C° 0 mm 3 m/s 654 mmHg 14%
    13:00 +39°C° 0 mm 3 m/s 654 mmHg 10%
    14:00 +39°C° 0 mm 2 m/s 653 mmHg 10%
    15:00 +39°C° 0 mm 2 m/s 653 mmHg 9%
    16:00 +38°C° 0 mm 2 m/s 652 mmHg 9%
    17:00 +36°C° 0 mm 2 m/s 652 mmHg 16%
    18:00 +33°C° 0 mm 3 m/s 652 mmHg 23%
    19:00 +29°C° 0 mm 3 m/s 652 mmHg 30%
    20:00 +27°C° 0 mm 3 m/s 652 mmHg 40%
    21:00 +25°C° 0 mm 3 m/s 652 mmHg 49%
    22:00 +24°C° 0 mm 3 m/s 653 mmHg 59%
    23:00 +23°C° 0 mm 2 m/s 653 mmHg 63%

    Mâine, 27 Septembrie, Miercuri

    Timp Temperatura Precipitaţii Vânt Presiune Umiditate
    00:00 +21°C° 0 mm 2 m/s 652 mmHg 67%
    01:00 +21°C° 0 mm 1 m/s 652 mmHg 71%
    02:00 +20°C° 0 mm 1 m/s 652 mmHg 74%
    03:00 +20°C° 0 mm 1 m/s 652 mmHg 76%
    04:00 +19°C° 0 mm 1 m/s 652 mmHg 78%
    05:00 +20°C° 0 mm 1 m/s 652 mmHg 71%
    06:00 +21°C° 0 mm 1 m/s 653 mmHg 64%
    07:00 +21°C° 0 mm 0 m/s 653 mmHg 57%
    08:00 +26°C° 0 mm 2 m/s 654 mmHg 42%
    09:00 +30°C° 0 mm 3 m/s 655 mmHg 28%
    10:00 +34°C° 0 mm 4 m/s 656 mmHg 13%
    11:00 +36°C° 0 mm 3 m/s 655 mmHg 11%
    12:00 +37°C° 0 mm 3 m/s 655 mmHg 10%
    13:00 +39°C° 0 mm 3 m/s 654 mmHg 8%
    14:00 +39°C° 0 mm 2 m/s 654 mmHg 8%
    15:00 +39°C° 0 mm 2 m/s 653 mmHg 7%
    16:00 +39°C° 0 mm 1 m/s 653 mmHg 7%
    17:00 +36°C° 0 mm 2 m/s 652 mmHg 12%
    18:00 +33°C° 0 mm 3 m/s 652 mmHg 17%
    19:00 +28°C° 0 mm 3 m/s 652 mmHg 22%
    20:00 +27°C° 0 mm 3 m/s 653 mmHg 32%
    21:00 +25°C° 0 mm 3 m/s 653 mmHg 42%
    22:00 +24°C° 0 mm 3 m/s 653 mmHg 52%
    23:00 +23°C° 0 mm 2 m/s 653 mmHg 57%

    Poimâine, 28 Septembrie, Joi

    Timp Temperatura Precipitaţii Vânt Presiune Umiditate
    00:00 +21°C° 0 mm 2 m/s 653 mmHg 61%
    01:00 +20°C° 0 mm 2 m/s 653 mmHg 66%
    02:00 +19°C° 0 mm 2 m/s 652 mmHg 68%
    03:00 +18°C° 0 mm 2 m/s 652 mmHg 71%
    04:00 +19°C° 0 mm 1 m/s 652 mmHg 73%
    05:00 +20°C° 0 mm 1 m/s 652 mmHg 66%
    06:00 +21°C° 0 mm 1 m/s 653 mmHg 59%
    07:00 +22°C° 0 mm 1 m/s 654 mmHg 52%
    08:00 +26°C° 0 mm 1 m/s 655 mmHg 39%
    09:00 +30°C° 0 mm 2 m/s 656 mmHg 25%
    10:00 +35°C° 0 mm 2 m/s 657 mmHg 12%
    11:00 +37°C° 0 mm 2 m/s 656 mmHg 11%
    12:00 +39°C° 0 mm 2 m/s 656 mmHg 9%
    13:00 +41°C° 0 mm 2 m/s 655 mmHg 8%
    14:00 +40°C° 0 mm 2 m/s 655 mmHg 8%
    15:00 +39°C° 0 mm 2 m/s 654 mmHg 9%
    16:00 +39°C° 0 mm 1 m/s 653 mmHg 9%
    17:00 +36°C° 0 mm 2 m/s 653 mmHg 13%
    18:00 +32°C° 0 mm 2 m/s 653 mmHg 16%
    19:00 +30°C° 0 mm 2 m/s 653 mmHg 19%
    20:00 +28°C° 0 mm 2 m/s 653 mmHg 27%
    21:00 +26°C° 0 mm 3 m/s 654 mmHg 34%
    22:00 +24°C° 0 mm 3 m/s 654 mmHg 41%
    23:00 +23°C° 0 mm 2 m/s 653 mmHg 46%

    29 Septembrie, Vineri

    Timp Temperatura Precipitaţii Vânt Presiune Umiditate
    00:00 +21°C° 0 mm 2 m/s 653 mmHg 51%
    01:00 +20°C° 0 mm 2 m/s 653 mmHg 56%
    02:00 +21°C° 0 mm 1 m/s 653 mmHg 58%
    03:00 +20°C° 0 mm 1 m/s 652 mmHg 60%
    04:00 +20°C° 0 mm 1 m/s 652 mmHg 62%
    05:00 +21°C° 0,1 mm 1 m/s 653 mmHg 59%
    06:00 +22°C° 0,1 mm 1 m/s 653 mmHg 56%
    07:00 +23°C° 0,1 mm 1 m/s 654 mmHg 52%
    08:00 +26°C° 0 mm 1 m/s 655 mmHg 42%
    09:00 +30°C° 0 mm 1 m/s 655 mmHg 31%
    10:00 +33°C° 0 mm 1 m/s 656 mmHg 21%
    11:00 +36°C° 0 mm 2 m/s 655 mmHg 19%
    12:00 +37°C° 0 mm 2 m/s 655 mmHg 17%
    13:00 +39°C° 0 mm 2 m/s 654 mmHg 15%
    14:00 +38°C° 0 mm 2 m/s 654 mmHg 16%
    15:00 +37°C° 0 mm 2 m/s 653 mmHg 16%
    16:00 +36°C° 0 mm 2 m/s 653 mmHg 17%
    17:00 +34°C° 0,4 mm 2 m/s 653 mmHg 23%
    18:00 +30°C° 0,4 mm 2 m/s 653 mmHg 29%
    19:00 +28°C° 0,4 mm 2 m/s 653 mmHg 34%
    20:00 +27°C° 0,2 mm 2 m/s 653 mmHg 39%
    21:00 +25°C° 0,2 mm 2 m/s 654 mmHg 43%
    22:00 +24°C° 0,2 mm 2 m/s 654 mmHg 48%
    23:00 +23°C° 0,1 mm 1 m/s 653 mmHg 50%

    30 Septembrie, Sâmbătă

    Timp Temperatura Precipitaţii Vânt Presiune Umiditate
    00:00 +22°C° 0,1 mm 1 m/s 653 mmHg 52%
    01:00 +22°C° 0,1 mm 1 m/s 652 mmHg 54%
    02:00 +21°C° 0 mm 1 m/s 652 mmHg 55%
    03:00 +21°C° 0 mm 1 m/s 652 mmHg 56%
    04:00 +21°C° 0 mm 1 m/s 652 mmHg 57%
    05:00 +22°C° 0 mm 1 m/s 652 mmHg 54%
    06:00 +22°C° 0 mm 1 m/s 653 mmHg 51%
    07:00 +23°C° 0 mm 1 m/s 654 mmHg 49%
    08:00 +26°C° 0,2 mm 2 m/s 654 mmHg 43%
    09:00 +29°C° 0,2 mm 2 m/s 655 mmHg 36%
    10:00 +32°C° 0,2 mm 2 m/s 656 mmHg 30%
    11:00 +35°C° 0 mm 2 m/s 655 mmHg 26%
    12:00 +37°C° 0 mm 2 m/s 655 mmHg 23%
    13:00 +39°C° 0 mm 2 m/s 654 mmHg 19%
    14:00 +36°C° 0 mm 1 m/s 654 mmHg 20%
    15:00 +35°C° 0 mm 1 m/s 653 mmHg 21%
    16:00 +34°C° 0 mm 1 m/s 653 mmHg 23%
    17:00 +32°C° 0,1 mm 2 m/s 653 mmHg 27%
    18:00 +30°C° 0,1 mm 2 m/s 653 mmHg 30%
    19:00 +28°C° 0,1 mm 2 m/s 653 mmHg 34%
    20:00 +27°C° 0 mm 2 m/s 653 mmHg 40%
    21:00 +26°C° 0 mm 2 m/s 654 mmHg 45%
    22:00 +25°C° 0 mm 3 m/s 654 mmHg 51%
    23:00 +24°C° 0 mm 2 m/s 653 mmHg 56%

    1 Octombrie, Duminică

    Timp Temperatura Precipitaţii Vânt Presiune Umiditate
    00:00 +23°C° 0 mm 2 m/s 653 mmHg 60%
    01:00 +21°C° 0 mm 2 m/s 653 mmHg 65%
    02:00 +22°C° 0 mm 1 m/s 653 mmHg 68%
    03:00 +21°C° 0 mm 1 m/s 653 mmHg 70%
    04:00 +20°C° 0 mm 1 m/s 652 mmHg 73%
    05:00 +21°C° 0 mm 1 m/s 653 mmHg 69%
    06:00 +22°C° 0 mm 1 m/s 654 mmHg 66%
    07:00 +23°C° 0 mm 1 m/s 654 mmHg 62%
    08:00 +27°C° 0 mm 1 m/s 655 mmHg 50%
    09:00 +31°C° 0 mm 1 m/s 656 mmHg 37%
    10:00 +35°C° 0 mm 1 m/s 657 mmHg 24%
    11:00 +36°C° 0 mm 1 m/s 656 mmHg 22%
    12:00 +38°C° 0 mm 2 m/s 655 mmHg 19%
    13:00 +39°C° 0 mm 2 m/s 654 mmHg 17%
    14:00 +38°C° 0 mm 2 m/s 654 mmHg 18%
    15:00 +37°C° 0 mm 2 m/s 654 mmHg 18%
    16:00 +35°C° 0 mm 1 m/s 653 mmHg 19%
    17:00 +34°C° 0,2 mm 2 m/s 653 mmHg 24%
    18:00 +31°C° 0,2 mm 2 m/s 654 mmHg 28%
    19:00 +30°C° 0,2 mm 2 m/s 654 mmHg 33%
    20:00 +28°C° 0,3 mm 2 m/s 654 mmHg 38%
    21:00 +27°C° 0,3 mm 2 m/s 654 mmHg 44%
    22:00 +26°C° 0,3 mm 2 m/s 654 mmHg 49%
    23:00 +25°C° 0,2 mm 2 m/s 654 mmHg 53%
    Arată mai mult